This demonstration page uses our WeatherBlox Daily Observations layout. Learn more.

Left ArrowRight Arrow

Hourly Observations for July 25, 2017

Temp ( °F °C ) Dew Point ( °F °C ) Humidity (%) Winds ( mph kmh ) Pressure ( in mb ) Visibility ( mi km ) Precip ( " mm )
12:15 am 00:15 Clear 77 24.9 59 14.8 54 54 S 10 17 29.85 1011 10 16 0.00 0.00
12:35 am 00:35 Clear 79 26 57 13.7 47 47 S 13 20 29.85 1011 10 16 0.00 0.00
12:55 am 00:55 Clear 80 26.6 55 13 43 43 S 15 24 29.83 1010 10 16 0.00 0.00
1:15 am 01:15 Clear 80 26.5 55 12.9 43 43 S 14 22 29.85 1011 10 16 0.00 0.00
1:35 am 01:35 Clear 79 26.3 55 13 44 44 S 13 20 29.85 1011 10 16 0.00 0.00
1:55 am 01:55 Clear 77 25.1 56 13.5 49 49 S 10 17 29.85 1011 10 16 0.00 0.00
2:15 am 02:15 Clear 76 24.4 57 13.9 52 52 S 9 15 29.85 1011 10 16 0.00 0.00
2:35 am 02:35 Clear 75 23.7 57 14.1 55 55 S 8 13 29.85 1011 10 16 0.00 0.00
2:55 am 02:55 Clear 74 23.2 58 14.3 57 57 S 9 15 29.85 1011 10 16 0.00 0.00
3:15 am 03:15 Clear 74 23.6 58 14.2 56 56 S 9 15 29.85 1011 10 16 0.00 0.00
3:35 am 03:35 Clear 75 24.1 57 14.1 54 54 S 10 17 29.85 1011 10 16 0.00 0.00
3:55 am 03:55 Clear 74 23.6 58 14.3 56 56 S 7 11 29.85 1011 10 16 0.00 0.00
4:15 am 04:15 Clear 74 23.6 58 14.4 56 56 S 8 13 29.85 1011 10 16 0.00 0.00
4:35 am 04:35 Clear 74 23.5 58 14.5 57 57 SSE 9 15 29.85 1011 10 16 0.00 0.00
4:55 am 04:55 Clear 74 23.4 59 14.8 59 59 SSE 8 13 29.85 1011 10 16 0.00 0.00
5:15 am 05:15 Clear 72 22.3 59 15.1 64 64 SSE 7 11 29.88 1012 10 16 0.00 0.00
5:35 am 05:35 Clear 72 22.1 59 15.2 65 65 SSE 7 11 29.91 1013 10 16 0.00 0.00
5:55 am 05:55 Clear 70 21.2 60 15.6 71 71 S 8 13 29.88 1012 10 16 0.00 0.00
6:15 am 06:15 Clear 71 21.4 60 15.7 70 70 S 6 9 29.91 1013 10 16 0.00 0.00
6:35 am 06:35 Sunny 70 21.2 61 16 72 72 S 7 11 29.91 1013 10 16 0.00 0.00
6:55 am 06:55 Sunny 71 21.6 61 16.3 72 72 SSE 6 9 29.91 1013 10 16 0.00 0.00
7:15 am 07:15 Sunny 72 22.3 62 16.6 70 70 SE 6 9 29.91 1013 10 16 0.00 0.00
7:35 am 07:35 Sunny 73 22.8 63 17 70 70 Calm 29.91 1013 10 16 0.00 0.00
7:55 am 07:55 Sunny 74 23.5 64 17.6 70 70 SSE 6 9 29.88 1012 10 16 0.00 0.00
8:15 am 08:15 Sunny 75 24.1 64 17.9 68 68 S 8 13 29.88 1012 10 16 0.00 0.00
8:35 am 08:35 Sunny 77 25 65 18.3 66 66 S 10 17 29.88 1012 10 16 0.00 0.00
8:55 am 08:55 Sunny 79 26.2 66 18.8 64 64 S 14 22 29.88 1012 10 16 0.00 0.00
9:15 am 09:15 Sunny 80 26.4 66 19.1 64 64 S 14 22 29.88 1012 10 16 0.00 0.00
9:35 am 09:35 Sunny 79 26.3 67 19.5 66 66 S 13 20 29.88 1012 10 16 0.00 0.00
9:55 am 09:55 Sunny 82 27.6 67 19.4 61 61 S 15 24 29.85 1011 10 16 0.00 0.00
10:15 am 10:15 Sunny 82 27.7 68 19.8 62 62 S 13 20 29.85 1011 10 16 0.00 0.00
10:35 am 10:35 Sunny 83 28.3 68 20.2 62 62 S 15 24 29.85 1011 10 16 0.00 0.00
10:55 am 10:55 Sunny 84 28.9 69 20.6 61 61 S 13 20 29.85 1011 10 16 0.00 0.00
11:15 am 11:15 Sunny 85 29.5 70 20.9 60 60 S 14 22 29.85 1011 10 16 0.00 0.00
11:35 am 11:35 Sunny 84 29 69 20.4 60 60 S 17 28 29.85 1011 10 16 0.00 0.00
11:55 am 11:55 Sunny 85 29.7 70 21.3 61 61 S 16 26 29.85 1011 10 16 0.00 0.00
12:15 pm 12:15 Sunny 87 30.3 71 21.6 60 60 S 14 22 29.85 1011 10 16 0.00 0.00
12:35 pm 12:35 Sunny 88 31.1 72 22.2 59 59 S 16 26 29.80 1009 10 16 0.00 0.00
12:55 pm 12:55 Sunny 89 31.7 71 21.9 56 56 S 17 28 29.80 1009 10 16 0.00 0.00
1:15 pm 13:15 Sunny 90 32.2 71 21.4 53 53 S 16 26 29.80 1009 10 16 0.00 0.00
1:35 pm 13:35 Sunny 91 32.5 71 21.8 53 53 SSE 16 26 29.80 1009 10 16 0.00 0.00
1:55 pm 13:55 Sunny 91 32.8 71 21.6 52 52 S 17 28 29.80 1009 10 16 0.00 0.00
2:15 pm 14:15 Sunny 92 33.1 71 21.8 51 51 S 18 30 29.80 1009 10 16 0.00 0.00
2:35 pm 14:35 Sunny 92 33.3 71 21.7 51 51 S 20 31 29.80 1009 10 16 0.00 0.00
2:55 pm 14:55 Sunny 91 32.5 70 21.3 52 52 S 16 26 29.80 1009 10 16 0.00 0.00
3:15 pm 15:15 Sunny 92 33.5 72 22 51 51 SSE 17 28 29.80 1009 10 16 0.00 0.00
3:35 pm 15:35 Sunny 93 33.7 71 21.7 49 49 SSE 17 28 29.74 1007 10 16 0.00 0.00
3:55 pm 15:55 Sunny 93 34 72 22.1 50 50 SSE 17 28 29.74 1007 10 16 0.00 0.00
4:15 pm 16:15 Sunny 93 34 70 21.1 47 47 SSE 17 28 29.74 1007 10 16 0.00 0.00
4:35 pm 16:35 Sunny 93 34.1 71 21.4 47 47 SSE 17 28 29.74 1007 10 16 0.00 0.00
4:55 pm 16:55 Sunny 93 34 69 20.7 46 46 SSE 16 26 29.74 1007 10 16 0.00 0.00
5:15 pm 17:15 Sunny 93 34 69 20.3 45 45 SSE 17 28 29.71 1006 10 16 0.00 0.00
5:35 pm 17:35 Sunny 93 34 70 20.9 46 46 SSE 16 26 29.71 1006 10 16 0.00 0.00
5:55 pm 17:55 Sunny 93 34 70 20.9 46 46 SSE 18 30 29.71 1006 10 16 0.00 0.00
6:15 pm 18:15 Sunny 92 33.5 70 21.2 48 48 SE 17 28 29.71 1006 10 16 0.00 0.00
6:35 pm 18:35 Sunny 92 33.1 71 21.5 51 51 SE 14 22 29.68 1005 10 16 0.00 0.00
6:55 pm 18:55 Sunny 91 33 70 21.3 50 50 SE 14 22 29.71 1006 10 16 0.00 0.00
7:15 pm 19:15 Sunny 90 32.4 70 21.1 51 51 SSE 14 22 29.71 1006 10 16 0.00 0.00
7:35 pm 19:35 Sunny 89 31.7 69 20.6 52 52 SE 13 20 29.71 1006 10 16 0.00 0.00
7:55 pm 19:55 Sunny 89 31.7 70 21 53 53 SE 13 20 29.71 1006 10 16 0.00 0.00
8:15 pm 20:15 Sunny 88 31.3 70 20.9 54 54 SE 12 19 29.74 1007 10 16 0.00 0.00
8:35 pm 20:35 Sunny 87 30.7 69 20.6 55 55 SE 12 19 29.74 1007 10 16 0.00 0.00
8:55 pm 20:55 Sunny 86 30.2 69 20.6 56 56 SSE 12 19 29.71 1006 10 16 0.00 0.00
9:15 pm 21:15 Clear 85 29.5 69 20.7 59 59 SSE 13 20 29.71 1006 10 16 0.00 0.00
9:35 pm 21:35 Clear 84 29 69 20.7 61 61 SSE 12 19 29.74 1007 10 16 0.00 0.00
9:55 pm 21:55 Clear 84 29.1 69 20.5 60 60 SE 10 17 29.74 1007 10 16 0.00 0.00
10:15 pm 22:15 Clear 85 29.5 68 20.1 57 57 SE 12 19 29.77 1008 10 16 0.00 0.00
10:35 pm 22:35 Clear 84 28.9 68 20.2 59 59 SE 10 17 29.77 1008 10 16 0.00 0.00
10:55 pm 22:55 Clear 84 28.7 68 20.1 60 60 SE 12 19 29.77 1008 10 16 0.00 0.00
11:15 pm 23:15 Clear 83 28.5 68 20.1 60 60 SE 12 19 29.77 1008 10 16 0.00 0.00
11:35 pm 23:35 Clear 83 28.3 68 20 61 61 SE 12 19 29.77 1008 10 16 0.00 0.00
11:55 pm 23:55 Clear with Nearby Thunderstorms 82 27.5 68 20.2 64 64 ESE 8 13 29.77 1008 10 16 0.00 0.00

Powered by AerisWeather